Simultaneous Nadir Overpasses (SNOs) Predictions

Prediction of SNOs between AQUA and METOP-B Satellite Orbit:

Table of predicted SNOs for the next 14.0 days since TLE Epoch: 5/21/2022
Index Date (AQUA) Time (AQUA) Lat,Lon (AQUA) SZA (AQUA ) Date (METOP-B) Time (METOP-B) Lat,Lon (METOP-B) SZA (METOP-B ) Distance(km) Time Diff (sec)
1 05/23/2022 08:47:15 73.90, 42.76 53.27 05/23/2022 08:46:08 73.87, 42.75 53.25 3.37 67
2 05/23/2022 09:36:42 -73.98,-149.78 126.66 05/23/2022 09:36:48 -73.96,-149.71 126.68 3.33 6
3 05/23/2022 10:26:12 74.14, 17.50 53.51 05/23/2022 10:27:24 74.15, 18.09 53.50 18.07 72
4 05/26/2022 04:21:03 73.93, 109.26 52.79 05/26/2022 04:20:31 73.91, 109.25 52.77 2.32 32
5 05/26/2022 05:10:30 -74.01, -83.27 127.14 05/26/2022 05:11:11 -74.00, -83.21 127.15 2.10 41
6 05/28/2022 23:05:21 -73.90, 8.26 127.70 05/28/2022 23:04:14 -73.91, 8.30 127.69 1.41 67
7 05/28/2022 23:54:49 73.96, 175.76 52.36 05/28/2022 23:54:53 73.94, 175.72 52.34 2.83 4
8 05/29/2022 00:44:18 -74.14, -17.00 127.46 05/29/2022 00:45:30 -74.18, -16.36 127.44 20.14 72
9 05/31/2022 18:39:07 -73.93, 74.77 128.09 05/31/2022 18:38:37 -73.93, 74.76 128.08 0.21 30
10 05/31/2022 19:28:35 74.00,-117.74 51.98 05/31/2022 19:29:15 74.01,-117.71 51.99 1.65 40
11 06/03/2022 13:23:25 73.89, -26.21 51.52 06/03/2022 13:22:19 73.89, -26.26 51.53 1.58 66
12 06/03/2022 14:12:52 -73.96, 141.27 128.41 06/03/2022 14:13:00 -73.95, 141.20 128.43 3.19 8



Historial Predications of SNOs between AQUA and METOP-B
